Location: Malvern Link
(52.1333°N, 2.3000°W)
Time: 02:29:41
(UTC+00:00)

SO-50 - Visible Passes

Search period start: 02 July 2022 00:00
Search period end: 12 July 2022 00:00
Orbit: 586 x 697 km, 64.6° (Epoch: 01 July)

Date Brightness Start Highest point End Pass type
(mag) Time Alt. Az. Time Alt. Az. Time Alt. Az.
02 Jul ? 00:45:26 22° SSW 00:48:27 68° SE 00:53:19 10° NE visible
02 Jul ? 02:24:53 10° W 02:29:16 34° NNW 02:33:45 10° NE visible
02 Jul ? 23:31:14 21° SSE 23:32:54 25° ESE 23:36:52 10° ENE visible
03 Jul ? 01:08:47 13° SW 01:12:58 68° NW 01:17:52 10° NE visible
03 Jul ? 02:50:14 10° WNW 02:54:14 25° NNW 02:58:18 10° NE visible
03 Jul ? 23:54:31 24° S 23:57:06 49° SE 00:01:49 10° NE visible
04 Jul ? 01:33:08 10° WSW 01:37:41 41° NW 01:42:21 10° NE visible
04 Jul ? 22:40:10 16° SE 22:41:43 18° ESE 22:45:00 10° ENE visible
05 Jul ? 00:17:43 16° SW 00:21:31 88° NW 00:26:26 10° NE visible
05 Jul ? 01:58:23 10° W 02:02:34 28° NNW 02:06:51 10° NE visible
05 Jul ? 23:03:15 21° S 23:05:48 36° ESE 23:10:14 10° NE visible
06 Jul ? 00:41:28 10° WSW 00:46:08 51° NW 00:50:57 10° NE visible
06 Jul ? 02:23:48 10° WNW 02:27:36 22° NNW 02:31:28 10° NE visible
06 Jul ? 21:48:40 11° SE 21:50:33 13° ESE 21:52:44 10° E visible
06 Jul ? 23:26:12 15° SSW 23:30:06 70° SE 23:34:59 10° NE visible
07 Jul ? 01:06:34 10° W 01:10:57 33° NNW 01:15:25 10° NE visible
07 Jul ? 02:49:11 10° NW 02:52:44 20° N 02:56:19 10° NE visible
07 Jul ? 22:11:24 14° SSE 22:14:33 26° ESE 22:18:34 10° ENE visible
07 Jul ? 23:49:52 10° SW 23:54:38 66° NW 23:59:32 10° NE visible
08 Jul ? 01:31:56 10° WNW 01:35:55 25° NNW 01:39:58 10° NE visible
08 Jul ? 22:34:10 10° SSW 22:38:44 51° SE 22:43:29 10° NE visible
09 Jul ? 00:14:48 10° WSW 00:19:21 40° NNW 00:24:00 10° NE visible
09 Jul ? 01:57:21 10° WNW 02:01:00 20° N 02:04:41 10° NE visible
09 Jul ? 21:20:02 10° SSE 21:23:20 19° ESE 21:26:43 10° ENE visible
09 Jul ? 22:58:23 10° SW 23:03:09 86° NW 23:08:06 10° NE visible
10 Jul ? 00:40:03 10° W 00:44:14 28° NNW 00:48:30 10° NE visible
10 Jul ? 02:22:38 10° NW 02:26:09 19° N 02:29:42 10° NE visible
10 Jul ? 21:43:05 10° S 21:47:26 37° ESE 21:51:54 10° NE visible
10 Jul ? 23:23:07 10° WSW 23:27:47 50° NW 23:32:35 10° NE visible
11 Jul ? 01:05:29 10° WNW 01:09:17 22° NNW 01:13:08 10° NE visible
11 Jul ? 02:47:38 10° NW 02:51:18 20° N 02:55:00 10° ENE visible
11 Jul ? 22:07:01 10° SSW 22:11:45 72° SE 22:16:38 10° NE visible
11 Jul ? 23:48:14 10° W 23:52:36 33° NNW 23:57:04 10° NE visible
